Starlink 30166

operational
NORAD ID: 57602 Int'l Des: 2023-119 Owner: SPXS Country: US Constellation: starlink
LEOCIRCULAR

Über Starlink 30166

Beschreibung wird geladen...

Live-Position

3D-Globus wird geladen...

Nächste Überflüge

Höhenverlauf

Altitude vs Time

uPlot chart will show altitude changes over time

Zweizeiliger Elementsatz

1 57602U 23119A 26034.93217308 .00000280 00000-0 35779-4 0 9999
2 57602 43.0029 265.4084 0001099 269.0426 91.0291 15.02534330137949
Epoch: 3. Feb. 2026 • Age: 15 hours

Aktueller Status

Höhe 569.1 km
Geschwindigkeit 7.58 km/s
Subsatellitenpunkt -36.61°S, 152.61°E
Startdatum 11. Aug. 2023
Alter 2.4 years
Typ internet

Technische Details

Klassifizierung Payload
Masse 730.00 kg
Trockenmasse 700.00 kg
Gesamtmasse 730.00 kg
Länge 0.30 m
Durchmesser 4.10 m
Spannweite 29.00 m
Form Box + pan
Hersteller SPXS
Bus-Typ Starlink V2M
Phasenstatus In Orbit
Besitzer/Staat SPXS/US

Große Konstellationen

Loading constellations...